UAL1559 KSNA-KEWR

Flight info

Callsign UAL1559
Flight time N/A
Altitude 37000
Route STAYY4 AVRRY LANCY DRK ALS HLC OVR DSM EVOTE NELLS KEEHO J584 SLT FQM3
Aircraft B737/M-SDE2E3FGHIRWXY/LB1

Departure

Time 2026-05-08 03:54
Airport John Wayne Orange County International Airport (KSNA)

Arrival

Time N/A
Airport Newark Liberty International Airport (KEWR)
Time Latitude Longitude Altitude Speed Heading
2026-05-08 03:25 33.67900 -117.86256 50 ft 0 kts 118°
2026-05-08 03:47 33.67909 -117.86275 54 ft 4 kts 121°
2026-05-08 03:47 33.67922 -117.86302 46 ft 4 kts 109°
2026-05-08 03:47 33.67924 -117.86324 54 ft 3 kts 32°
2026-05-08 03:48 33.67922 -117.86325 52 ft 1 kts 29°
2026-05-08 03:51 33.67960 -117.86301 54 ft 9 kts 27°
2026-05-08 03:51 33.68013 -117.86269 52 ft 8 kts 23°
2026-05-08 03:51 33.68061 -117.86295 52 ft 8 kts 299°
2026-05-08 03:52 33.68086 -117.86357 52 ft 8 kts 296°
2026-05-08 03:52 33.68112 -117.86415 54 ft 8 kts 298°
2026-05-08 03:52 33.68139 -117.86471 52 ft 8 kts 300°
2026-05-08 03:52 33.68156 -117.86508 47 ft 4 kts 295°
2026-05-08 03:53 33.68148 -117.86522 53 ft 0 kts 206°
2026-05-08 03:53 33.68124 -117.86537 51 ft 26 kts 206°
2026-05-08 03:53 33.67721 -117.86790 54 ft 104 kts 207°
2026-05-08 03:53 33.66880 -117.87322 134 ft 161 kts 207°
2026-05-08 03:54 33.65877 -117.87968 921 ft 165 kts 208°
2026-05-08 03:54 33.64810 -117.88603 1469 ft 187 kts 199°
2026-05-08 03:54 33.63422 -117.88908 1789 ft 217 kts 180°
2026-05-08 03:54 33.61863 -117.88862 2327 ft 233 kts 185°
2026-05-08 03:55 33.60295 -117.89518 2838 ft 248 kts 218°
2026-05-08 03:55 33.58767 -117.90638 3444 ft 269 kts 196°
2026-05-08 03:55 33.56883 -117.90622 4350 ft 281 kts 163°
2026-05-08 03:55 33.55213 -117.89354 5221 ft 291 kts 137°
2026-05-08 03:56 33.53609 -117.87867 6159 ft 293 kts 151°
2026-05-08 03:56 33.51838 -117.86650 7097 ft 294 kts 147°
2026-05-08 03:56 33.50380 -117.84938 7988 ft 296 kts 121°
2026-05-08 03:56 33.49443 -117.82759 9001 ft 294 kts 113°
2026-05-08 03:57 33.48606 -117.80525 9966 ft 294 kts 112°
2026-05-08 03:57 33.47788 -117.78247 10606 ft 306 kts 107°
2026-05-08 03:57 33.47557 -117.75636 10789 ft 329 kts 84°
2026-05-08 03:57 33.47792 -117.72838 11221 ft 344 kts 83°
2026-05-08 03:58 33.48142 -117.70023 11920 ft 348 kts 73°
2026-05-08 03:58 33.49160 -117.67395 12759 ft 348 kts 60°
2026-05-08 03:58 33.50384 -117.64877 13568 ft 351 kts 59°
2026-05-08 03:58 33.51631 -117.62340 14254 ft 356 kts 59°
2026-05-08 03:59 33.52888 -117.59761 14932 ft 360 kts 60°
2026-05-08 03:59 33.54144 -117.57152 15642 ft 363 kts 60°
2026-05-08 03:59 33.55402 -117.54515 16348 ft 366 kts 60°
2026-05-08 03:59 33.56668 -117.51850 17032 ft 370 kts 59°
2026-05-08 04:00 33.57858 -117.49096 17689 ft 375 kts 69°
2026-05-08 04:00 33.58342 -117.46046 18341 ft 381 kts 87°
2026-05-08 04:00 33.58304 -117.42850 18958 ft 384 kts 90°
2026-05-08 04:00 33.58187 -117.39635 19551 ft 388 kts 91°
2026-05-08 04:01 33.58064 -117.36392 20156 ft 391 kts 91°
2026-05-08 04:01 33.57958 -117.33115 20743 ft 394 kts 90°
2026-05-08 04:01 33.57870 -117.29810 21338 ft 397 kts 90°
2026-05-08 04:01 33.57788 -117.26486 21915 ft 400 kts 90°
2026-05-08 04:02 33.57832 -117.23148 22449 ft 402 kts 78°
2026-05-08 04:02 33.58485 -117.19884 22991 ft 403 kts 73°
2026-05-08 04:02 33.59230 -117.16637 23580 ft 406 kts 72°
2026-05-08 04:02 33.59976 -117.13351 24005 ft 410 kts 73°
2026-05-08 04:03 33.60709 -117.10033 24475 ft 413 kts 73°
2026-05-08 04:03 33.62143 -117.03334 25444 ft 417 kts 73°
2026-05-08 04:03 33.62826 -116.99940 25894 ft 420 kts 78°
2026-05-08 04:04 33.62953 -116.96412 26307 ft 426 kts 89°
2026-05-08 04:04 33.62838 -116.92846 26775 ft 428 kts 90°
2026-05-08 04:04 33.62705 -116.89261 27192 ft 431 kts 90°
2026-05-08 04:04 33.62577 -116.85652 27576 ft 434 kts 90°
2026-05-08 04:05 33.62460 -116.82002 27877 ft 439 kts 89°
2026-05-08 04:05 33.62352 -116.78327 28290 ft 441 kts 89°
2026-05-08 04:05 33.62252 -116.74690 28690 ft 443 kts 89°
2026-05-08 04:05 33.62152 -116.70978 29062 ft 446 kts 89°
2026-05-08 04:06 33.62053 -116.67237 29390 ft 449 kts 89°
2026-05-08 04:06 33.61952 -116.63483 29780 ft 451 kts 89°
2026-05-08 04:06 33.61848 -116.59707 30090 ft 454 kts 89°
2026-05-08 04:06 33.61743 -116.55915 30391 ft 456 kts 89°
2026-05-08 04:07 33.61635 -116.52106 30755 ft 457 kts 89°
2026-05-08 04:07 33.61527 -116.48297 31062 ft 457 kts 89°
2026-05-08 04:07 33.61417 -116.44483 31434 ft 457 kts 89°
2026-05-08 04:07 33.61308 -116.40725 31847 ft 455 kts 89°
2026-05-08 04:08 33.61197 -116.36940 32235 ft 454 kts 89°
2026-05-08 04:08 33.61085 -116.33155 32595 ft 454 kts 89°
2026-05-08 04:08 33.60983 -116.29366 32941 ft 453 kts 89°
2026-05-08 04:08 33.60888 -116.25591 33309 ft 452 kts 89°
2026-05-08 04:09 33.60794 -116.21821 33677 ft 451 kts 89°
2026-05-08 04:09 33.60699 -116.18064 33988 ft 450 kts 89°
2026-05-08 04:09 33.60602 -116.14312 34238 ft 450 kts 89°
2026-05-08 04:09 33.60503 -116.10554 34490 ft 450 kts 89°
2026-05-08 04:10 33.60403 -116.06804 34733 ft 450 kts 88°
2026-05-08 04:10 33.60642 -116.03086 34910 ft 445 kts 72°
2026-05-08 04:10 33.61654 -115.99598 35161 ft 441 kts 66°
2026-05-08 04:10 33.62783 -115.96170 35370 ft 442 kts 65°
2026-05-08 04:11 33.63902 -115.92789 35644 ft 441 kts 65°
2026-05-08 04:11 33.65021 -115.89366 35912 ft 440 kts 66°
2026-05-08 04:11 33.66124 -115.85941 36138 ft 439 kts 66°
2026-05-08 04:11 33.67214 -115.82517 36346 ft 439 kts 66°
2026-05-08 04:12 33.68297 -115.79089 36558 ft 439 kts 66°
2026-05-08 04:12 33.69375 -115.75663 36794 ft 438 kts 66°
2026-05-08 04:12 33.71532 -115.68801 36860 ft 439 kts 66°
2026-05-08 04:13 33.73688 -115.61931 36852 ft 439 kts 66°
2026-05-08 04:13 33.75843 -115.55115 36870 ft 438 kts 65°
2026-05-08 04:14 33.78226 -115.48368 36861 ft 438 kts 63°
2026-05-08 04:14 33.80673 -115.41644 36864 ft 439 kts 64°
2026-05-08 04:15 33.83099 -115.34892 36858 ft 439 kts 64°
2026-05-08 04:15 33.85500 -115.28135 36870 ft 439 kts 64°
2026-05-08 04:16 33.87881 -115.21396 36846 ft 440 kts 64°
2026-05-08 04:16 33.90273 -115.14611 36852 ft 441 kts 64°
2026-05-08 04:17 33.92263 -115.08956 36840 ft 442 kts 64°
2026-05-08 04:17 33.94660 -115.02135 36839 ft 442 kts 64°
2026-05-08 04:18 33.97031 -114.95367 36825 ft 432 kts 64°
2026-05-08 04:18 33.99345 -114.88747 36830 ft 427 kts 64°
2026-05-08 04:19 34.01653 -114.82143 36836 ft 428 kts 64°
2026-05-08 04:19 34.03962 -114.75516 36823 ft 428 kts 64°
2026-05-08 04:20 34.06249 -114.68939 36822 ft 429 kts 64°
2026-05-08 04:20 34.08556 -114.62290 36823 ft 430 kts 64°
2026-05-08 04:21 34.10865 -114.55621 36817 ft 431 kts 64°
2026-05-08 04:21 34.13178 -114.48927 36809 ft 432 kts 64°
2026-05-08 04:22 34.15487 -114.42228 36811 ft 432 kts 64°
2026-05-08 04:22 34.17792 -114.35528 36823 ft 432 kts 64°
2026-05-08 04:23 34.20077 -114.28870 36802 ft 431 kts 64°
2026-05-08 04:23 34.22362 -114.22199 36803 ft 429 kts 64°
2026-05-08 04:24 34.24637 -114.15545 36806 ft 427 kts 64°
2026-05-08 04:24 34.26891 -114.08909 36807 ft 426 kts 66°
2026-05-08 04:25 34.28851 -114.02126 36806 ft 427 kts 68°
2026-05-08 04:25 34.30698 -113.95294 36828 ft 428 kts 69°
2026-05-08 04:26 34.32557 -113.88445 36824 ft 429 kts 68°
2026-05-08 04:26 34.34439 -113.81575 36827 ft 431 kts 68°
2026-05-08 04:27 34.36330 -113.74691 36854 ft 432 kts 68°
2026-05-08 04:27 34.38225 -113.67779 36829 ft 432 kts 68°
2026-05-08 04:28 34.40110 -113.60882 36838 ft 430 kts 68°
2026-05-08 04:28 34.41970 -113.54060 36833 ft 428 kts 68°
2026-05-08 04:29 34.43831 -113.47219 36848 ft 426 kts 68°
2026-05-08 04:29 34.45681 -113.40403 36841 ft 425 kts 69°
2026-05-08 04:30 34.47521 -113.33604 36848 ft 424 kts 69°
2026-05-08 04:30 34.49343 -113.26856 36857 ft 424 kts 69°
2026-05-08 04:31 34.51174 -113.20062 36867 ft 424 kts 69°
2026-05-08 04:31 34.53002 -113.13257 36872 ft 425 kts 69°
2026-05-08 04:32 34.54834 -113.06423 36881 ft 427 kts 69°
2026-05-08 04:32 34.56668 -112.99563 36890 ft 429 kts 69°
2026-05-08 04:33 34.58510 -112.92652 36902 ft 432 kts 69°
2026-05-08 04:33 34.60360 -112.85698 36907 ft 434 kts 69°
2026-05-08 04:34 34.62213 -112.78709 36914 ft 435 kts 69°
2026-05-08 04:34 34.64067 -112.71702 36916 ft 436 kts 69°
2026-05-08 04:35 34.65919 -112.64682 36921 ft 437 kts 69°
2026-05-08 04:35 34.67756 -112.57700 36915 ft 437 kts 69°
2026-05-08 04:36 34.69602 -112.50671 36921 ft 436 kts 69°
2026-05-08 04:36 34.70614 -112.47204 37106 ft 433 kts 63°
2026-05-08 04:36 34.71964 -112.43937 37157 ft 431 kts 59°
2026-05-08 04:37 34.74809 -112.37531 37119 ft 429 kts 59°
2026-05-08 04:37 34.77651 -112.31147 37069 ft 428 kts 59°
2026-05-08 04:38 34.80436 -112.24812 37044 ft 427 kts 59°
2026-05-08 04:38 34.83218 -112.18434 37010 ft 426 kts 59°
2026-05-08 04:39 34.85984 -112.12066 37025 ft 425 kts 59°
2026-05-08 04:39 34.88747 -112.05695 37038 ft 424 kts 59°
2026-05-08 04:40 34.91494 -111.99345 37060 ft 423 kts 59°
2026-05-08 04:40 34.94228 -111.93017 37078 ft 421 kts 59°
2026-05-08 04:41 34.96936 -111.86737 37071 ft 420 kts 59°
2026-05-08 04:41 34.99650 -111.80432 37096 ft 420 kts 59°
2026-05-08 04:42 35.02369 -111.74103 37217 ft 421 kts 59°
2026-05-08 04:42 35.05096 -111.67748 37243 ft 424 kts 59°
2026-05-08 04:43 35.07834 -111.61351 37250 ft 426 kts 59°
2026-05-08 04:43 35.10586 -111.54908 37024 ft 428 kts 59°
2026-05-08 04:44 35.13346 -111.48435 37024 ft 430 kts 59°
2026-05-08 04:44 35.16108 -111.41944 37017 ft 431 kts 59°
2026-05-08 04:45 35.18852 -111.35483 37021 ft 430 kts 59°
2026-05-08 04:45 35.21605 -111.28987 37004 ft 429 kts 59°
2026-05-08 04:46 35.24345 -111.22510 36994 ft 428 kts 59°
2026-05-08 04:46 35.27075 -111.16046 36993 ft 427 kts 59°
2026-05-08 04:47 35.29796 -111.09589 36992 ft 426 kts 59°
2026-05-08 04:47 35.32508 -111.03143 36988 ft 425 kts 59°
2026-05-08 04:48 35.35210 -110.96705 36985 ft 424 kts 59°
2026-05-08 04:48 35.37885 -110.90322 36974 ft 424 kts 59°
2026-05-08 04:49 35.40577 -110.83886 36980 ft 424 kts 59°
2026-05-08 04:49 35.43271 -110.77434 36984 ft 425 kts 59°
2026-05-08 04:50 35.45967 -110.70963 36973 ft 426 kts 59°
2026-05-08 04:50 35.48664 -110.64475 36973 ft 427 kts 59°
2026-05-08 04:51 35.51366 -110.57963 36971 ft 428 kts 59°
2026-05-08 04:51 35.54068 -110.51441 36967 ft 429 kts 59°
2026-05-08 04:52 35.56768 -110.44908 36978 ft 430 kts 59°
2026-05-08 04:52 35.59457 -110.38388 36973 ft 430 kts 59°
2026-05-08 04:53 35.62162 -110.31819 36968 ft 431 kts 59°
2026-05-08 04:53 35.64865 -110.25240 36968 ft 431 kts 59°
2026-05-08 04:54 35.67564 -110.18657 36968 ft 430 kts 60°
2026-05-08 04:54 35.70234 -110.12132 36977 ft 430 kts 59°
2026-05-08 04:55 35.72919 -110.05559 36970 ft 430 kts 59°
2026-05-08 04:55 35.75599 -109.98983 36969 ft 429 kts 59°
2026-05-08 04:56 35.78275 -109.92405 36970 ft 429 kts 59°
2026-05-08 04:56 35.80947 -109.85823 36971 ft 429 kts 59°
2026-05-08 04:57 35.83619 -109.79230 36979 ft 430 kts 59°
2026-05-08 04:57 35.86283 -109.72642 36974 ft 432 kts 59°
2026-05-08 04:58 35.88964 -109.66000 36977 ft 433 kts 59°
2026-05-08 04:58 35.91649 -109.59331 36970 ft 435 kts 59°
2026-05-08 04:59 35.94340 -109.52633 36983 ft 435 kts 59°
2026-05-08 04:59 35.97031 -109.45924 36992 ft 436 kts 59°
2026-05-08 05:00 35.99721 -109.39202 36996 ft 437 kts 59°
2026-05-08 05:00 36.02410 -109.32468 37002 ft 437 kts 59°
2026-05-08 05:01 36.05097 -109.25726 36991 ft 438 kts 59°
2026-05-08 05:01 36.07764 -109.19021 37006 ft 437 kts 60°
2026-05-08 05:02 36.10439 -109.12278 37007 ft 437 kts 60°
2026-05-08 05:02 36.13114 -109.05524 37012 ft 437 kts 60°
2026-05-08 05:03 36.15789 -108.98758 37002 ft 437 kts 60°
2026-05-08 05:03 36.18457 -108.91991 37005 ft 437 kts 60°
2026-05-08 05:04 36.20675 -108.86356 36996 ft 438 kts 59°
2026-05-08 05:04 36.23776 -108.78462 36994 ft 439 kts 59°
2026-05-08 05:05 36.26449 -108.71644 37002 ft 440 kts 59°
2026-05-08 05:05 36.28690 -108.65914 36990 ft 441 kts 60°
2026-05-08 05:06 36.31354 -108.59089 36990 ft 443 kts 60°
2026-05-08 05:06 36.34040 -108.52193 36991 ft 444 kts 60°
2026-05-08 05:07 36.36726 -108.45282 36999 ft 444 kts 60°
2026-05-08 05:07 36.39408 -108.38366 36990 ft 446 kts 60°
2026-05-08 05:08 36.42100 -108.31409 36997 ft 446 kts 60°
2026-05-08 05:08 36.44784 -108.24459 36993 ft 447 kts 60°
2026-05-08 05:09 36.47470 -108.17486 36999 ft 447 kts 60°
2026-05-08 05:09 36.50156 -108.10500 36995 ft 447 kts 60°
2026-05-08 05:10 36.54155 -108.00068 37002 ft 447 kts 60°
2026-05-08 05:11 36.56825 -107.93083 37024 ft 447 kts 60°
2026-05-08 05:11 36.59492 -107.86093 37014 ft 447 kts 59°
2026-05-08 05:12 36.62155 -107.79099 37000 ft 448 kts 60°
2026-05-08 05:12 36.64818 -107.72087 36990 ft 448 kts 60°
2026-05-08 05:13 36.67482 -107.65057 36980 ft 449 kts 60°
2026-05-08 05:13 36.70150 -107.58001 36964 ft 451 kts 60°
2026-05-08 05:14 36.72822 -107.50917 36974 ft 452 kts 60°
2026-05-08 05:14 36.75481 -107.43853 36966 ft 453 kts 60°
2026-05-08 05:15 36.78157 -107.36726 36969 ft 454 kts 60°
2026-05-08 05:15 36.80836 -107.29576 36978 ft 455 kts 60°
2026-05-08 05:16 36.83513 -107.22415 36974 ft 456 kts 60°
2026-05-08 05:16 36.86190 -107.15234 36985 ft 456 kts 60°
2026-05-08 05:17 36.88863 -107.08048 36989 ft 456 kts 60°
2026-05-08 05:17 36.91530 -107.00863 37002 ft 456 kts 60°
2026-05-08 05:18 36.94200 -106.93657 36997 ft 456 kts 60°
2026-05-08 05:18 36.96846 -106.86495 37018 ft 457 kts 60°
2026-05-08 05:19 36.99508 -106.79274 37025 ft 458 kts 60°
2026-05-08 05:19 37.02179 -106.72013 37041 ft 459 kts 60°
2026-05-08 05:20 37.04851 -106.64731 37035 ft 462 kts 60°
2026-05-08 05:20 37.07532 -106.57405 37067 ft 463 kts 60°
2026-05-08 05:21 37.10230 -106.50019 37049 ft 466 kts 60°
2026-05-08 05:21 37.12909 -106.42661 37048 ft 467 kts 60°
2026-05-08 05:22 37.15606 -106.35237 37054 ft 468 kts 60°
2026-05-08 05:22 37.18299 -106.27808 37043 ft 469 kts 61°
2026-05-08 05:23 37.20996 -106.20349 37033 ft 469 kts 61°
2026-05-08 05:23 37.23688 -106.12887 37037 ft 469 kts 61°
2026-05-08 05:24 37.26374 -106.05422 37028 ft 470 kts 61°
2026-05-08 05:24 37.29046 -105.97978 37041 ft 470 kts 61°
2026-05-08 05:25 37.31746 -105.90436 37157 ft 471 kts 61°
2026-05-08 05:25 37.34412 -105.82973 37164 ft 471 kts 61°
2026-05-08 05:26 37.37142 -105.75494 37159 ft 471 kts 60°
2026-05-08 05:26 37.39944 -105.68044 37134 ft 471 kts 60°
2026-05-08 05:27 37.42749 -105.60577 37115 ft 472 kts 60°
2026-05-08 05:27 37.45545 -105.53083 37087 ft 473 kts 60°
2026-05-08 05:28 37.48315 -105.45616 37051 ft 474 kts 60°
2026-05-08 05:28 37.51106 -105.38072 37027 ft 475 kts 60°
2026-05-08 05:29 37.53895 -105.30513 37018 ft 476 kts 61°
2026-05-08 05:29 37.56687 -105.22931 37009 ft 477 kts 61°
2026-05-08 05:30 37.59482 -105.15320 37006 ft 478 kts 61°
2026-05-08 05:30 37.62274 -105.07697 36991 ft 478 kts 61°
2026-05-08 05:31 37.65046 -105.00112 36975 ft 479 kts 62°
2026-05-08 05:31 37.67833 -104.92466 36956 ft 479 kts 62°
2026-05-08 05:32 37.70620 -104.84801 36954 ft 480 kts 62°
2026-05-08 05:32 37.73408 -104.77115 36932 ft 482 kts 62°
2026-05-08 05:33 37.76197 -104.69405 36932 ft 483 kts 62°
2026-05-08 05:33 37.78990 -104.61663 36911 ft 484 kts 62°
2026-05-08 05:34 37.81782 -104.53905 36917 ft 485 kts 62°
2026-05-08 05:34 37.84576 -104.46124 36900 ft 485 kts 62°
2026-05-08 05:35 37.87346 -104.38386 36897 ft 485 kts 62°
2026-05-08 05:35 37.90131 -104.30589 36894 ft 485 kts 62°
2026-05-08 05:36 37.92913 -104.22777 36894 ft 485 kts 62°
2026-05-08 05:36 37.95683 -104.14981 36893 ft 485 kts 63°
2026-05-08 05:37 37.98443 -104.07189 36885 ft 485 kts 63°
2026-05-08 05:37 38.01200 -103.99388 36889 ft 484 kts 63°
2026-05-08 05:38 38.03933 -103.91635 36893 ft 484 kts 63°
2026-05-08 05:38 38.06677 -103.83830 36926 ft 484 kts 63°
2026-05-08 05:39 38.09418 -103.76015 36938 ft 485 kts 63°
2026-05-08 05:39 38.12167 -103.68154 36951 ft 487 kts 63°
2026-05-08 05:40 38.14913 -103.60282 36969 ft 488 kts 63°
2026-05-08 05:40 38.17641 -103.52437 36956 ft 489 kts 63°
2026-05-08 05:41 38.20389 -103.44516 36943 ft 490 kts 63°
2026-05-08 05:41 38.23137 -103.36576 36935 ft 491 kts 63°
2026-05-08 05:42 38.25883 -103.28617 36905 ft 491 kts 63°
2026-05-08 05:42 38.28625 -103.20648 36887 ft 491 kts 64°
2026-05-08 05:43 38.31346 -103.12720 36890 ft 492 kts 64°
2026-05-08 05:43 38.34082 -103.04726 36879 ft 492 kts 64°
2026-05-08 05:44 38.36813 -102.96725 36881 ft 492 kts 64°
2026-05-08 05:44 38.39539 -102.88715 36883 ft 492 kts 64°
2026-05-08 05:45 38.42261 -102.80696 36914 ft 493 kts 64°
2026-05-08 05:45 38.44980 -102.72663 36886 ft 494 kts 64°
2026-05-08 05:46 38.47701 -102.64604 36883 ft 495 kts 64°
2026-05-08 05:46 38.50405 -102.56571 36878 ft 495 kts 64°
2026-05-08 05:47 38.53119 -102.48486 36875 ft 496 kts 64°
2026-05-08 05:47 38.55834 -102.40377 36884 ft 496 kts 64°
2026-05-08 05:48 38.58548 -102.32246 36880 ft 497 kts 64°
2026-05-08 05:48 38.61258 -102.24102 36887 ft 498 kts 64°
2026-05-08 05:49 38.63953 -102.15984 36887 ft 498 kts 64°
2026-05-08 05:49 38.66656 -102.07817 36888 ft 499 kts 65°
2026-05-08 05:50 38.69358 -101.99629 36893 ft 499 kts 65°
2026-05-08 05:50 38.71620 -101.92757 36889 ft 500 kts 65°
2026-05-08 05:51 38.74298 -101.84600 36893 ft 500 kts 65°
2026-05-08 05:51 38.76993 -101.76366 36891 ft 501 kts 64°
2026-05-08 05:52 38.79686 -101.68117 36895 ft 501 kts 64°
2026-05-08 05:52 38.82358 -101.59907 36892 ft 501 kts 65°
2026-05-08 05:53 38.85038 -101.51646 36892 ft 501 kts 65°
2026-05-08 05:53 38.87713 -101.43378 36889 ft 501 kts 65°
2026-05-08 05:54 38.90381 -101.35110 36890 ft 501 kts 65°
2026-05-08 05:54 38.93044 -101.26830 36892 ft 501 kts 65°
2026-05-08 05:55 38.95684 -101.18599 36892 ft 501 kts 65°
2026-05-08 05:55 38.98334 -101.10310 36912 ft 501 kts 65°
2026-05-08 05:56 39.00980 -101.02011 36922 ft 502 kts 65°
2026-05-08 05:56 39.03618 -100.93710 36939 ft 502 kts 65°
2026-05-08 05:57 39.06254 -100.85396 36944 ft 502 kts 65°
2026-05-08 05:57 39.08885 -100.77064 36959 ft 502 kts 65°
2026-05-08 05:58 39.11515 -100.68720 36952 ft 502 kts 65°
2026-05-08 05:58 39.14118 -100.60432 36926 ft 502 kts 65°
2026-05-08 05:59 39.16734 -100.52079 36912 ft 502 kts 65°
2026-05-08 05:59 39.19343 -100.43720 36898 ft 502 kts 65°
2026-05-08 06:00 39.21948 -100.35349 36881 ft 502 kts 66°
2026-05-08 06:00 39.24543 -100.26985 36881 ft 503 kts 65°
2026-05-08 06:01 39.27440 -100.18806 36896 ft 499 kts 57°
2026-05-08 06:01 39.30949 -100.11154 36881 ft 499 kts 54°
2026-05-08 06:02 39.34551 -100.03491 36872 ft 499 kts 55°
2026-05-08 06:02 39.38111 -99.95765 36934 ft 500 kts 56°
2026-05-08 06:03 39.41636 -99.87991 36910 ft 501 kts 56°
2026-05-08 06:03 39.45144 -99.80204 36898 ft 501 kts 56°
2026-05-08 06:04 39.48648 -99.72406 36893 ft 501 kts 56°
2026-05-08 06:04 39.52147 -99.64610 36882 ft 501 kts 56°
2026-05-08 06:05 39.55620 -99.56854 36872 ft 500 kts 56°
2026-05-08 06:05 39.59105 -99.49054 36858 ft 500 kts 56°
2026-05-08 06:06 39.62588 -99.41239 36853 ft 501 kts 56°
2026-05-08 06:06 39.66075 -99.33394 36916 ft 501 kts 56°
2026-05-08 06:07 39.69561 -99.25533 36891 ft 503 kts 56°
2026-05-08 06:07 39.73047 -99.17648 36875 ft 503 kts 56°
2026-05-08 06:08 39.76532 -99.09748 36868 ft 504 kts 56°